COSMOS 2251 DEB

Satellite information

Favourite Embed

Satellite Type and Status

DEBRISIN ORBIT

Key statistics

Satellite COSMOS 2251 DEB at a glance.

Uptime

11869

Days in orbit

Revolutions

≈ 14.8

Per day

Orbit

LEO

Low Earth Orbit

Inclination

74.0

Latest

Satellite identification and parameters

Extended collection of information and parameters for COSMOS 2251 DEB.

Object identification

Identified? True

Debris? True

Object name: COSMOS 2251 DEB

International designator: 1993-036ANR

Object number (NORAD): 35650

Object ID (CCSDS): 35650

Country: COMMONWEALTH OF INDEPENDENT STATES (CIS)

Current information (Y/N): Y

RCS size: SMALL

Orbital parameters

Period: 97.062 minutes

Inclination: 74.0463 deg

SMA: 6996.179 km

Apoapsis: 628.207 km

Periapsis: 607.881 km

RAAN: 21.242 deg

Eccentricy: 0.00145271

Argument of periapsis: 69.1098 deg

Mean anomaly: 81.4479 deg

Mean motion: 14.83581418 rev/day

Mean motion (dot): 0.00027227 rev/day2

B* drag term: 0.0032878905 1/REarth

Two-line elements (TLE)

Creation date: Dec. 11, 2025, 7:14 p.m.

Reference frame: TEME

Reference center: EARTH

Epoch: Dec. 11, 2025, 1:04 p.m. UTC

TLE line 0: 0 COSMOS 2251 DEB

TLE line 1: 1 35650U 93036ANR 25345.54486116 .00027227 00000-0 32879-2 0 9995

TLE line 2: 2 35650 74.0463 21.2420 0014527 69.1098 81.4479 14.83581418876162

Live tracking on map

Real-time ground track for satellite COSMOS 2251 DEB.

In-orbit conjunctions

A list of the most updated potential collisions computed for object COSMOS 2251 DEB.

Target Orbit TCA Probability of collision Miss distance Type
DELTA 1 DEB SSO 2024-11-13 08:46:22 0.0004991871 271.0 (m) DEBRIS
DMSP 5D-2 F11 DEB SSO 2024-09-24 20:55:39 0.0009650823 357.0 (m) DEBRIS

Associated space launch

Military communications satellite. Destroyed in a collision with Iridium 33.

COSMOS 2251 DEB was lifted into orbit during the mission ‘Kosmos-3M | Strela-2M 51’, on board a Kosmos-3M space rocket.

The launch took place on June 16, 1993, 4:17 a.m. from 132/1 (132L).

For more information about the launch, click the button.

Launch to space Kosmos-3M | Strela-2M 51
Kosmos-3M | Strela-2M 51

Agency: N/A

Status: Launch Successful

Launch date: June 16, 1993, 4:17 a.m. UTC

Rocket: Kosmos-3M

Launch pad: 132/1 (132L)

Location: Plesetsk Cosmodrome, Russian Federation

...

Latest news about this satellite

There are no fresh news available about this satellite. Check back as we update our databases every day.


Newsletter sign-up

Weekly statistics, charts and insights to help you stay on top of the space industry.